     2.10           OBSERVATION DATA    G (GPS)             RINEX VERSION / TYPE
teqc 2002Apr3 Duncan Agnew 20050511 23:58:18UTC             PGM / RUN BY / DATE
OSX 5.3|G3|cc|OSX 5.3+|G3+                                  COMMENT
BIT 2 OF LLI FLAGS DATA COLLECTED UNDER A/S CONDITION       COMMENT
STAGE                                                       MARKER NAME
1722                                                        MARKER NUMBER
Dave Beltran Nolte Engineering                              OBSERVER / AGENCY
220331722 TRIMBLE 5700 NP 2.01 / SP 2.01                    REC # / TYPE / VERS
12582749 TRM41249.00                                        ANT # / TYPE
 -2330647.0000 -4813305.0000  3463953.0000                  APPROX POSITION XYZ
        2.0000        0.0000        0.0000                  ANTENNA: DELTA H/E/N
     1     1                                                WAVELENGTH FACT L1/2
     7    C1    L1    L2    P1    P2    S1    S2            # / TYPES OF OBSERV
SNR is mapped to RINEX snr flag value [1-9]                 COMMENT
L1: 3 -> 1; 8 -> 5; 40 -> 9                                 COMMENT
L2: 1 -> 1; 5 -> 5; 60 -> 9                                 COMMENT
  2004     6    28    22     7   15.0000000     GPS         TIME OF FIRST OBS
                                                            END OF HEADER
 04  6 28 22  7 15.0000000  0  6G 1G11G14G16G20G25
  22563069.6254     -57965.36759    -21871.88257                  22563070.0864
        47.2504         35.5004
  22207480.4774     -10293.47359     -7480.87157                  22207479.7304
        49.5004         37.0004
  24232881.1174        256.68459     -4246.35257                  24232881.0824
        43.2504         26.5004
  23483776.8444     -68926.55159    -27292.35557                  23483777.4964
        44.2504         29.5004
  21824926.8054     -71360.48859    -26244.05957                  21824924.8754
        49.5004         37.5004
  21174270.6724      -8130.72759     -6784.32458                  21174269.2544
        51.5004         42.5004
 04  6 28 22  7 30.0000000  0  6G 1G11G14G16G20G25
  22551509.2344    -118715.66049    -69209.77047                  22551509.9694
        48.0004         33.7504
  22205339.4534     -21545.24249    -16248.53547                  22205338.4774
        49.0004         34.2504
  24232806.3364       -134.46149     -4551.17247                  24232806.2114
        43.5004         26.2504
  23468600.7974    -148675.96549    -89434.71547                  23468601.2074
        44.5004         26.7504
  21810920.7664    -144961.96949    -83595.87547                  21810919.0474
        50.0004         35.7504
  21172576.2664     -17036.69549    -13724.02048                  21172574.6374
        51.7504         41.0004
 04  6 28 22  7 45.0000000  0  6G 1G11G14G16G20G25
  22539886.4614    -179794.51649   -116803.66847                  22539886.7544
        47.7504         33.2504
  22203149.1954     -33055.59449    -25217.66847                  22203148.2504
        49.0004         33.7504
  24232664.2814       -883.01249     -5134.48446                  24232663.8634
        42.5004         22.0004
  23453362.1884    -228755.93049   -151834.64547                  23453362.5554
        44.2504         26.2504
  21796857.8364    -218863.80549   -141181.71947                  21796856.0944
        50.2504         35.2504
  21170829.8674     -26214.66049    -20875.69548                  21170828.3634
        51.0004         40.5004
 04  6 28 22  8  0.0000000  0  6G 1G11G14G16G20G25
  22528248.4224    -240951.43749   -164458.40247                  22528249.2154
        47.5004         33.5004
  22200957.1564     -44574.14149    -34193.19547                  22200956.3284
        49.5004         34.0004
  24232500.9534      -1738.44949     -5801.11746                  24232500.6484
        41.5004         22.5004
  23438108.3834    -308915.44549   -214296.55947                  23438108.2624
        44.5004         26.5004
  21782785.6954    -292815.07449   -198806.08647                  21782784.3054
        50.0004         36.0004
  21169079.1884     -35414.26249    -28044.23448                  21169077.8674
        51.7504         40.2504
 04  6 28 22  8 15.0000000  0  6G 1G11G14G16G20G25
  22516613.8054    -302094.44949   -212102.28547                  22516613.9884
        48.0004         33.5004
  22198781.2504     -56009.05549    -43103.53547                  22198780.8284
        49.5004         33.5004
  24232335.5234      -2608.60949     -6479.19946                  24232335.3444
        41.2504         22.7504
  23422856.7424    -389062.07449   -276748.42247                  23422856.5164
        45.0004         26.0004
  21768720.7194    -366723.44549   -256397.00847                  21768719.6564
        49.7504         35.5004
  21167341.5634     -44543.75449    -35158.13748                  21167340.2734
        51.5004         39.5004
 04  6 28 22  8 30.0000000  0  6G 1G11G14G16G20G25
  22504987.2584    -363190.84849   -259709.85247                  22504987.9964
        47.7504         33.2504
  22196627.0084     -67327.92649    -51923.46947                  22196626.5554
        48.7504         32.5004
  24232173.3054      -3460.71149     -7143.17646                  24232173.0434
        41.7504         22.2504
  23407614.3444    -469162.75049   -339164.51247                  23407613.7974
        45.2504         26.2504
  21754671.5704    -440555.94549   -313928.82447                  21754669.7194
        50.0004         35.5004
  21165623.9224     -53570.57449    -42192.03147                  21165622.5984
        51.5004         39.2504
 04  6 28 22  8 45.0000000  0  6G 1G11G14G16G20G25
  22493373.2734    -424221.68749   -307266.34447                  22493374.2854
        48.2504         34.0004
  22194499.1254     -78512.37149    -60638.66047                  22194497.8524
        49.0004         33.5004
  24232017.5864      -4275.95349     -7778.49246                  24232018.5124
        41.0004         22.5004
  23392384.5004    -549198.18049   -401529.76247                  23392383.9734
        46.0004         27.5004
  21740639.4694    -514293.38749   -371386.57047                  21740638.0664
        49.5004         36.0004
  21163929.5004     -62476.07849    -49131.40648                  21163928.0864
        51.0004         40.5004
 04  6 28 22  9  0.0000000  0  6G 1G11G14G16G20G25
  22481775.0314    -485171.59849   -354759.76647                  22481775.4614
        47.5004         33.2504
  22192399.4844     -89546.98449    -69237.07847                  22192398.0864
        49.5004         33.5004
  24231872.3364      -5038.83249     -8372.96546                  24231873.3754
        40.0004         21.2504
  23377169.9614    -629152.53149   -463831.82847                  23377168.5864
        45.7504         26.7504
  21726628.7194    -587920.06249   -428757.99647                  21726627.1914
        50.0004         36.0004
  21162260.7274     -71245.05949    -55964.39848                  21162259.1954
        51.2504         40.2504
 04  6 28 22  9 15.0000000  0  6G 1G11G14G16G20G25
  22470194.3984    -546029.00849   -402181.10247                  22470194.9574
        48.0004         32.7504
  22190329.9844    -100420.49249    -77709.96147                  22190329.2234
        48.0004         32.0004
  24231739.6884      -5737.64849     -8917.54746                  24231740.6644
        39.5004         21.5004
  23361972.5554    -709013.78549   -526061.34046                  23361972.0044
        45.5004         24.5004
  21712641.3364    -661424.00849   -486033.78547                  21712640.0434
        50.0004         35.0004
  21160620.1024     -79866.22749    -62682.19948                  21160618.4734
        51.2504         39.7504
 04  6 28 22  9 30.0000000  0  6G 1G11G14G16G20G25
  22458632.1334    -606789.85249   -449527.21147                  22458632.2894
        48.2504         33.0004
  22188292.1174    -111129.13349    -86054.39147                  22188291.5004
        49.0004         32.7504
  24231619.8364      -6368.30949     -9409.00446                  24231620.1914
        40.2504         21.5004
  23346793.9614    -788777.46549   -588214.81247                  23346793.4534
        45.2504         26.7504
  21698678.2734    -734800.74249   -543210.45747                  21698676.9574
        49.7504         35.7504
  21159008.6564     -88335.75449    -69281.84448                  21159006.9694
        51.5004         39.7504
 04  6 28 22  9 45.0000000  0  6G 1G11G14G16G20G25
  22447087.0164    -667458.29749   -496801.32047                  22447087.2814
        48.7504         33.7504
  22186285.2034    -121677.32449    -94273.79347                  22186284.3014
        49.5004         34.2504
  24231511.8284      -6934.96149     -9850.62146                  24231512.7274
        40.5004         21.5004
  23331633.0234    -868447.24649   -650295.11747                  23331633.2384
        43.5004         26.7504
  21684738.2584    -808054.09849   -600290.99247                  21684736.5314
        50.2504         36.2504
  21157425.1414     -96657.90249    -75766.65648                  21157423.5984
        51.7504         40.0004
 04  6 28 22 10  0.0000000  0  6G 1G11G14G16G20G25
  22435557.7034    -728045.53549   -544012.12947                  22435558.0744
        48.0004         33.0004
  22184305.7664    -132076.36349   -102376.95747                  22184305.0664
        49.0004         33.0004
  24231414.6564      -7448.70349    -10250.98846                  24231415.1374
        40.7504         22.0004
  23316487.6564    -948033.82049   -712310.55147                  23316488.4344
        44.0004         26.5004
  21670820.1644    -881194.99649   -657283.89147                  21670818.6414
        49.7504         36.2504
  21155867.1564    -104844.19949    -82145.59447                  21155865.3634
        51.5004         39.2504
 04  6 28 22 10 15.0000000  0  6G 1G11G14G16G20G25
  22424041.6884    -788562.25049   -591167.98847                  22424042.0594
        48.2504         33.0004
  22182353.6254    -142337.16849   -110372.41047                  22182352.7154
        49.5004         32.7504
  24231325.2114      -7920.26249    -10618.48046                  24231325.7814
        42.5004         22.5004
  23301356.8834   -1027547.50449   -774269.19147                  23301357.3674
        44.5004         28.2504
  21656921.6414    -954233.83649   -714197.25447                  21656920.2664
        50.5004         36.2504
  21154333.1414    -112905.68049    -88427.27747                  21154331.0904
        51.5004         39.2504
 04  6 28 22 10 30.0000000  0  6G 1G11G14G16G20G25
  22412538.0394    -849015.85949   -638274.69547                  22412537.8324
        47.7504         32.7504
  22180425.9694    -152467.46149   -118266.18447                  22180425.2774
        48.5004         32.5004
  24231241.9694      -8356.86349    -10958.73446                  24231242.4414
        42.5004         24.7504
  23286238.2504   -1106995.33649   -836176.55947                  23286238.4734
        45.0004         26.5004
  21643040.7274   -1027177.65249   -771036.58647                  21643039.1054
        49.7504         37.0004
  21152821.2734    -120849.80949    -94617.52748                  21152819.5744
        51.0004         39.5004
 04  6 28 22 10 45.0000000  0  6G 1G11G14G16G20G25
  22401045.1254    -909410.59049   -685335.49647                  22401045.1334
        48.0004         32.5004
  22178522.1334    -162471.77049   -126061.77047                  22178521.5554
        48.0004         33.0004
  24231165.5394      -8762.79749    -11275.06246                  24231165.1954
        43.2504         24.5004
  23271132.2114   -1186380.98849   -898035.46146                  23271131.8634
        45.2504         25.5004
  21629177.3674   -1100030.28949   -827804.85547                  21629176.1564
        50.0004         36.5004
  21151331.1484    -128680.89849   -100719.68747                  21151329.3164
        51.0004         39.2504
 04  6 28 22 11  0.0000000  0  6G 1G11G14G16G20G25
  22389563.4064    -969745.23049   -732349.48847                  22389563.4414
        48.0004         32.0004
  22176642.6174    -172349.04749   -133758.37547                  22176641.8094
        48.0004         32.0004
  24231093.9694      -9136.68449    -11566.42246                  24231093.6254
        43.0004         23.5004
  23256037.5704   -1265702.87149   -959844.69547                  23256037.0704
        45.5004         26.0004
  21615331.6484   -1172790.18449   -884500.86747                  21615329.9844
        50.7504         36.2504
  21149862.5314    -136398.16049   -106733.14147                  21149860.8364
        50.5004         38.7504
 04  6 28 22 11 15.0000000  0  6G 1G11G14G16G20G25
  22378093.0554   -1030024.24249   -779320.13347                  22378093.1844
        47.0004         32.2504
  22174786.3364    -182103.99649   -141359.66847                  22174785.5044
        48.7504         33.5004
  24231027.5864      -9482.96949    -11836.29346                  24231027.9104
        42.0004         22.0004
  23240954.2814   -1344965.05949  -1021607.40647                  23240953.6524
        44.7504         26.0004
  21601502.6094   -1245461.46549   -941127.83647                  21601501.2384
        51.0004         36.0004
  21148414.9384    -144006.21149   -112661.50447                  21148413.3524
        50.0004         39.2504
 04  6 28 22 11 30.0000000  0  6G 1G11G14G16G20G25
  22366631.8054   -1090252.00849   -826250.84847                  22366631.8324
        47.0004         32.5004
  22172952.1094    -191741.30949   -148869.28947                  22172951.6564
        49.0004         33.7504
  24230965.3674      -9806.04749    -12088.09046                  24230966.2304
        40.7504         22.0004
  23225881.4924   -1424171.52049  -1083326.69546                  23225881.1724
        44.5004         24.7504
  21587689.5634   -1318048.22349   -997688.93747                  21587688.6024
        50.5004         36.5004
  21146986.6174    -151509.66849   -118508.37548                  21146985.2704
        50.7504         40.2504
 04  6 28 22 11 45.0000000  0  6G 1G11G14G16G20G25
  22355179.8524   -1150431.57849   -873144.00447                  22355180.2544
        47.5004         32.0004
  22171140.2664    -201264.22349   -156289.75847                  22171139.5084
        48.7504         33.0004
  24230908.4534     -10108.77749    -12324.03946                  24230909.5514
        41.5004         22.7504
  23210819.1174   -1503324.75849  -1145004.48447                  23210818.8524
        44.5004         25.7504
  21573892.5234   -1390553.10549  -1054186.23447                  21573891.2704
        50.2504         35.5004
  21145578.5474    -158911.83249   -124276.30548                  21145577.1994
        50.7504         39.5004
 04  6 28 22 12  0.0000000  0  6G 1G11G14G16G20G25
  22343738.1644   -1210560.09049   -919997.36347                  22343738.6994
        47.2504         31.7504
  22169350.0634    -210670.11349   -163619.04747                  22169349.7464
        49.2504         32.7504
  24230855.1644     -10388.28149    -12541.87946                  24230856.0044
        41.2504         22.5004
  23195767.5944   -1582421.57449  -1206638.32046                  23195767.1174
        44.0004         25.5004
  21560111.4924   -1462972.98849  -1110617.30147                  21560109.9574
        50.5004         36.5004
  21144189.3204    -166210.05949   -129963.24247                  21144187.9064
        52.0004         39.0004
 04  6 28 22 12 15.0000000  0  6G 1G11G14G16G20G25
  22332304.7974   -1270640.94549   -966813.60247                  22332305.1294
        48.2504         32.2504
  22167582.1804    -219962.53949   -170859.93047                  22167581.2344
        48.5004         33.0004
  24230806.0084     -10648.03149    -12744.34046                  24230806.8524
        41.2504         21.7504
  23180725.3204   -1661464.97349  -1268230.52047                  23180725.4804
        44.7504         26.7504
  21546346.0864   -1535310.90249  -1166984.49647                  21546344.7384
        50.5004         37.7504
  21142819.8204    -173407.99649   -135572.04348                  21142818.4344
        51.2504         39.7504
 04  6 28 22 12 30.0000000  0  6G 1G11G14G16G20G25
  22320881.1724   -1330672.85249  -1013591.68447                  22320881.3054
        47.2504         32.5004
  22165835.3364    -229140.79749   -178011.83247                  22165834.5514
        49.5004         32.7504
  24230761.0004     -10886.50849    -12930.14846                  24230760.8164
        40.5004         21.2504
  23165695.3674   -1740453.27049  -1329779.75847                  23165695.6334
        44.7504         27.2504
  21532596.6724   -1607565.27749  -1223286.57847                  21532595.4454
        50.2504         36.2504
  21141469.2734    -180504.50449   -141101.78948                  21141467.8164
        51.7504         39.5004
 04  6 28 22 12 45.0000000  0  6G 1G11G14G16G20G25
  22309466.5554   -1390656.09449  -1060331.85547                  22309466.8754
        48.0004         32.2504
  22164110.5704    -238205.42249   -185075.19947                  22164109.8164
        49.5004         32.7504
  24230718.7974     -11103.98849    -13099.65246                  24230718.8714
        39.5004         19.0004
  23150674.7734   -1819386.18749  -1391285.88347                  23150674.4884
        45.2504         26.7504
  21518862.8204   -1679736.09849  -1279523.57447                  21518861.6254
        50.2504         36.0004
  21140138.1804    -187500.16449   -146552.96147                  21140136.5824
        51.2504         39.2504
 04  6 28 22 13  0.0000000  0  6G 1G11G14G16G20G25
  22298061.9144   -1450590.68449  -1107034.11347                  22298061.2974
        48.0004         33.2504
  22162407.2274    -247156.52749   -192050.12547                  22162406.7034
        48.2504         33.7504
  24230681.6724     -11300.59049    -13252.88746                  24230681.8134
        39.5004         18.5004
  23135664.5944   -1898263.37149  -1452748.59447                  23135664.9024
        44.7504         27.5004
  21505145.5164   -1751822.98849  -1335695.17647                  21505143.6024
        50.2504         37.2504
  21138825.9384    -194395.25449   -151925.77748                  21138824.5044
        51.2504         39.5004
 04  6 28 22 13 15.0000000  0  6G 1G11G14G16G20G25
  22286666.0864   -1510473.77749  -1153696.23447                  22286666.5354
        47.2504         32.0004
  22160725.7424    -255991.45349   -198934.49247                  22160725.3364
        49.2504         32.2504
  24230649.8364     -11473.29349    -13387.50446                  24230648.0474
        40.5004         19.7504
  23120666.2034   -1977081.56249  -1514165.30946                  23120665.8834
        45.5004         25.2504
  21491444.3204   -1823822.71549  -1391798.84047                  21491442.5084
        50.5004         36.0004
  21137533.6414    -201187.17249   -157218.19147                  21137531.8284
        51.5004         39.0004
 04  6 28 22 13 30.0000000  0  6G 1G11G14G16G20G25
  22275279.2664   -1570311.12549  -1200322.71947                  22275279.8634
        47.2504         32.2504
  22159065.7734    -264716.19949   -205733.00847                  22159064.9534
        48.5004         32.2504
  24230619.7974     -11627.74249    -13507.89546                  24230619.4494
        41.2504         21.0004
  23105677.3834   -2055845.95349  -1575540.12147                  23105677.4964
        45.0004         26.5004
  21477758.3914   -1895740.73049  -1447838.83247                  21477756.9304
        50.2504         35.7504
  21136259.8134    -207881.80149   -162434.79347                  21136258.0944
        51.2504         38.7504
 04  6 28 22 13 45.0000000  0  6G 1G11G14G16G20G25
  22263901.6484   -1630101.98049  -1246912.98847                  22263901.6804
        47.2504         32.2504
  22157426.5234    -273330.28549   -212445.31647                  22157425.8244
        49.5004         33.0004
  24230594.5474     -11763.23849    -13613.50446                  24230594.0354
        42.0004         21.0004
  23090699.6334   -2134555.43449  -1636872.13347                  23090699.0594
        44.7504         26.0004
  21464088.4384   -1967575.95349  -1503814.32447                  21464087.1484
        50.2504         36.2504
  21135004.2664    -214478.62549   -167575.18447                  21135002.8834
        51.0004         39.0004
 04  6 28 22 14  0.0000000  0  6G 1G11G14G16G20G25
  22252531.3524   -1689851.84849  -1293471.32447                  22252531.6024
        47.5004         32.2504
  22155807.7504    -281839.50049   -219075.89847                  22155807.0314
        48.0004         33.0004
  24230571.0944     -11885.24249    -13708.62946                  24230569.9844
        43.2504         22.7504
  23075731.4384   -2213215.08649  -1698165.33246                  23075730.4104
        44.7504         25.5004
  21450433.6724   -2039333.54749  -1559729.33647                  21450432.1294
        50.0004         36.2504
  21133766.0704    -220983.37149   -172643.83648                  21133765.1374
        51.5004         39.5004
 04  6 28 22 14 15.0000000  0  6G 1G11G14G16G20G25
  22241169.3204   -1749560.72349  -1339997.69147                  22241169.7464
        47.0004         32.0004
  22154208.1644    -290244.17649   -225625.02747                  22154207.2664
        49.0004         33.0004
  24230550.7034     -11993.52749    -13793.00046                  24230549.9224
        42.0004         22.7504
  23060771.8914   -2291824.42649  -1759419.32047                  23060772.0944
        44.7504         26.5004
  21436793.5234   -2111013.09049  -1615583.50047                  21436792.0164
        50.7504         37.0004
  21132546.2274    -227396.18049   -177640.82848                  21132544.5004
        51.2504         39.7504
 04  6 28 22 14 30.0000000  0  6G 1G11G14G16G20G25
  22229816.0004   -1809225.75049  -1386489.89847                  22229815.1334
        48.0004         31.7504
  22152629.2734    -298541.63749   -232090.59447                  22152628.0984
        48.5004         32.7504
  24230533.4064     -12085.26649    -13864.50046                  24230533.1604
        43.0004         22.5004
  23045823.8444   -2370380.20749  -1820631.56247                  23045823.5204
        45.0004         26.5004
  21423168.7274   -2182611.41049  -1671374.38347                  21423167.1644
        51.0004         37.0004
  21131343.8364    -233714.61349   -182564.29347                  21131342.1644
        51.0004         38.7504
 04  6 28 22 14 45.0000000  0  6G 1G11G14G16G20G25
  22218469.9534   -1868847.24649  -1432948.19147                  22218469.9304
        48.5004         32.7504
  22151070.1414    -306732.55549   -238473.15647                  22151069.6134
        49.2504         33.0004
  24230518.5394     -12160.76649    -13923.37946                  24230518.6914
        41.7504         22.7504
  23030885.1334   -2448882.32049  -1881801.99247                  23030885.2234
        45.7504         28.5004
  21409559.6174   -2254128.53549  -1727102.01647                  21409558.0944
        50.5004         37.0004
  21130159.4454    -239939.07449   -187414.53148                  21130157.6954
        51.5004         39.5004
 04  6 28 22 15  0.0000000  0  6G 1G11G14G16G20G25
  22207131.6414   -1928429.49249  -1479375.88747                  22207131.5554
        48.2504         32.5004
  22149531.0864    -314821.42249   -244776.19147                  22149530.4654
        48.5004         32.0004
  24230506.5554     -12224.14549    -13972.79346                  24230507.2034
        41.2504         22.7504
  23015956.3444   -2527334.62949  -1942933.61347                  23015956.2234
        45.7504         27.7504
  21395964.8754   -2325568.28549  -1782769.33647                  21395962.8554
        50.7504         37.2504
  21128992.0704    -246074.02349   -192195.01647                  21128990.5784
        51.0004         39.2504
 04  6 28 22 15 14.9990000  0  6G 1G11G14G16G20G25
  22195801.9334   -1987967.38349  -1525769.03947                  22195802.0734
        47.7504         32.5004
  22148011.7304    -322806.69149   -250998.50447                  22148011.0734
        48.2504         32.2504
  24230496.8084     -12274.20749    -14011.84846                  24230497.3234
        41.2504         22.7504
  23001037.4874   -2605730.33649  -2004021.11347                  23001037.6714
        44.7504         28.5004
  21382386.3864   -2396924.56249  -1838371.61347                  21382384.6084
        50.5004         36.2504
  21127841.7064    -252118.28949   -196904.84048                  21127840.2184
        51.0004         39.5004
 04  6 28 22 15 29.9990000  0  6G 1G11G14G16G20G25
  22184478.8474   -2047470.20349  -1572134.86347                  22184478.7334
        48.5004         32.5004
  22146511.3084    -330691.00449   -257142.15647                  22146510.8584
        48.7504         32.7504
  24230489.6284     -12312.28149    -14041.56246                  24230490.4954
        42.0004         22.2504
  22986128.3554   -2684080.74649  -2065073.33647                  22986128.3394
        45.0004         26.5004
  21368821.6674   -2468207.87149  -1893917.05147                  21368819.8624
        50.5004         37.0004
  21126708.2924    -258074.28149   -201545.88748                  21126706.7574
        51.5004         39.7504
 04  6 28 22 15 44.9990000  0  6G 1G11G14G16G20G25
  22173163.9334   -2106932.94949  -1618469.44947                  22173163.7144
        48.7504         32.5004
  22145030.6594    -338473.23049   -263206.25047                  22145029.6474
        48.5004         31.7504
  24230485.3004     -12337.31649    -14061.10946                  24230485.5384
        42.0004         23.5004
  22971228.6594   -2762379.20749  -2126085.07446                  22971228.0774
        45.0004         25.5004
  21355271.9334   -2539412.02749  -1949400.79747                  21355270.1594
        50.0004         36.0004
  21125591.8704    -263940.76249   -206117.18047                  21125590.1014
        50.5004         39.2504
 04  6 28 22 15 59.9990000  0  6G 1G11G14G16G20G25
  22161855.3624   -2166358.39149  -1664774.97347                  22161855.2064
        48.2504         32.2504
  22143568.6444    -346156.30949   -269193.08247                  22143567.7414
        48.2504         32.2504
  24230482.5194     -12351.92649    -14072.50846                  24230482.8044
        41.7504         23.0004
  22956338.5734   -2840627.97749  -2187058.09847                  22956337.8154
        45.5004         27.0004
  21341736.5504   -2610539.51649  -2004824.79747                  21341734.8354
        50.5004         35.7504
  21124492.1054    -269720.59849   -210620.94947                  21124490.5654
        51.0004         38.5004
 04  6 28 22 16 14.9990000  0  6G 1G11G14G16G20G25
  22150554.2064   -2225748.19549  -1711052.72347                  22150553.7024
        49.2504         33.5004
  22142124.9724    -353742.24249   -275104.21547                  22142124.5974
        48.0004         33.0004
  24230481.2144     -12357.81249    -14077.16046                  24230481.8434
        39.2504         21.5004
  22941457.1284   -2918828.41049  -2247993.48047                  22941456.2924
        45.5004         27.0004
  21328216.2224   -2681591.67649  -2060190.10947                  21328214.2724
        51.0004         37.0004
  21123408.4404    -275415.64549   -215058.66447                  21123407.0384
        50.7504         38.5004
 04  6 28 22 16 29.9990000  0  6G 1G11G14G16G20G25
  22139258.5344   -2285105.48449  -1757305.14847                  22139258.4374
        48.2504         34.0004
  22140699.2454    -361234.45349   -280942.34047                  22140698.4724
        48.0004         32.5004
  24230479.7224     -12357.98449    -14077.38346                  24230481.9874
        38.0004         19.7504
  22926585.0264   -2996983.24249  -2308893.30947                  22926584.4644
        45.5004         28.2504
  21314709.0734   -2752571.28549  -2115498.89847                  21314707.3434
        50.5004         38.0004
  21122339.9874    -281029.50449   -219433.11348                  21122338.6754
        50.5004         40.0004
 04  6 28 22 16 44.9990000  0  6G 1G11G14G16G20G25
  22127969.9954   -2344428.65649  -1803530.96547                  22127969.3474
        48.5004         33.0004
  22139291.6204    -368631.55949   -286706.33247                  22139290.8824
        49.0004         32.2504
  24230482.0734     -12350.82849    -14071.87946                  24230484.2264
        39.0004         20.5004
  22911721.7614   -3075090.27349  -2369755.88747                  22911721.4604
        45.5004         28.5004
  21301216.4564   -2823476.45349  -2170749.66447                  21301214.2574
        51.0004         37.2504
  21121287.5584    -286560.72349   -223743.15648                  21121286.1324
        51.5004         39.5004
 04  6 28 22 16 59.9990000  0  6G 1G11G14G16G20G25
  22116687.2614   -2403720.14849  -1849732.11347                  22116686.6324
        48.5004         33.5004
  22137901.3944    -375936.25849   -292398.32047                  22137900.8354
        48.5004         33.0004
  24230484.8624     -12338.65249    -14062.40246                  24230484.9644
        39.5004         20.2504
  22896866.7764   -3153151.61349  -2430582.85247                  22896866.0224
        45.0004         27.0004
  21287737.0654   -2894309.19949  -2225944.00447                  21287735.6794
        50.7504         37.0004
  21120250.2144    -292011.89149   -227990.82448                  21120248.7184
        51.0004         39.5004
 04  6 28 22 17 14.9990000  0  5G 1G11G16G20G25
  22105410.4174   -2462978.69549  -1895907.59047                  22105410.1124
        48.7504         34.2504
  22136529.3704    -383147.61749   -298017.59847                  22136528.8944
        49.0004         32.5004
  22882021.9334   -3231165.57049  -2491372.90647                  22882020.7304
        45.0004         28.0004
  21274272.4724   -2965067.96549  -2281080.69547                  21274270.4644
        50.5004         37.5004
  21119228.3084    -297381.94149   -232175.29748                  21119227.0224
        51.0004         40.0004
 04  6 28 22 17 29.9990000  0  5G 1G11G16G20G25
  22094140.2534   -2522204.79749  -1942057.77747                  22094140.1364
        48.7504         33.2504
  22135174.6594    -390266.32449   -303564.66047                  22135174.1554
        48.2504         32.2504
  22867184.8554   -3309132.16849  -2552126.05547                  22867184.1124
        46.0004         28.2504
  21260821.4174   -3035752.89549  -2336159.85247                  21260819.4294
        50.5004         36.7504
  21118221.7844    -302671.75449   -236297.23048                  21118220.2764
        51.5004         39.5004
 04  6 28 22 17 44.9990000  0  5G 1G11G16G20G25
  22082875.9404   -2581398.21949  -1988182.49247                  22082875.8904
        48.2504         33.2504
  22133837.7454    -397292.39849   -309039.53547                  22133836.7264
        49.0004         32.7504
  22852357.4254   -3387050.74249  -2612841.78947                  22852356.9374
        45.5004         27.7504
  21247384.7144   -3106363.40649  -2391181.00847                  21247382.8784
        50.0004         36.0004
  21117230.5654    -307881.21149   -240356.54747                  21117228.9764
        51.0004         38.7504
 04  6 28 22 17 59.9990000  0  5G 1G11G16G20G25
  22071618.2534   -2640558.21149  -2034281.18047                  22071618.3744
        48.2504         34.5004
  22132518.2224    -404225.36749   -314441.88747                  22132517.8944
        48.5004         32.0004
  22837538.6904   -3464920.15249  -2673519.20747                  22837538.7334
        46.0004         28.2504
  21233962.0194   -3176898.30949  -2446143.27347                  21233960.4644
        50.7504         37.2504
  21116254.6364    -313009.80549   -244352.87147                  21116253.1204
        52.0004         39.2504
 04  6 28 22 18 14.9990000  0  5G 1G11G16G20G25
  22060367.0504   -2699683.05949  -2080352.47747                  22060367.4444
        48.5004         34.2504
  22131217.0264    -411063.90649   -319770.64147                  22131216.2534
        49.0004         32.5004
  22822731.1594   -3542738.23449  -2734156.63747                  22822730.2534
        46.0004         28.5004
  21220554.8394   -3247355.71149  -2501045.14147                  21220552.9604
        50.5004         37.7504
  21115294.2614    -318056.07849   -248285.04347                  21115292.9174
        51.0004         39.2504
 04  6 28 22 18 29.9990000  0  5G 1G11G16G20G25
  22049122.1754   -2758774.97349  -2126398.08647                  22049122.1404
        48.7504         34.5004
  22129933.5814    -417810.41449   -325027.69547                  22129932.7104
        47.5004         32.5004
  22807932.1674   -3620506.74649  -2794755.43447                  22807931.5544
        45.5004         28.5004
  21207161.5114   -3317737.46949  -2555888.05547                  21207159.7104
        50.5004         37.5004
  21114349.1984    -323022.46149   -252154.96147                  21114347.7884
        51.0004         38.7504
 04  6 28 22 18 44.9990000  0  5G 1G11G16G20G25
  22037883.9644   -2817832.02349  -2172416.54347                  22037884.3974
        49.2504         34.2504
  22128667.5814    -424463.19549   -330211.70347                  22128666.9134
        49.0004         32.7504
  22793142.8004   -3698223.39849  -2855313.82447                  22793142.9834
        45.7504         27.7504
  21193783.2224   -3388041.25849  -2610670.21947                  21193781.2454
        50.7504         36.7504
  21113419.6984    -327907.28549   -255961.33247                  21113418.4054
        51.2504         38.5004
 04  6 28 22 18 59.9990000  0  5G 1G11G16G20G25
  22026652.4954   -2876853.68749  -2218407.43747                  22026652.2884
        48.7504         35.2504
  22127419.4564    -431022.05149   -335322.52747                  22127418.6284
        49.0004         33.0004
  22778364.4094   -3775887.23849  -2915831.07047                  22778363.6054
        45.5004         29.0004
  21180419.6124   -3458266.25449  -2665390.99647                  21180417.9374
        50.7504         37.2504
  21112505.4174    -332710.28549   -259703.94947                  21112504.5624
        51.2504         39.0004
 04  6 28 22 19 14.9990000  0  5G 1G11G16G20G25
  22015427.6444   -2935841.14149  -2264371.65647                  22015427.8864
        48.7504         34.5004
  22126188.6124    -437488.50849   -340361.34447                  22126187.7654
        48.0004         32.5004
  22763595.0654   -3853498.95349  -2976307.68747                  22763594.9134
        45.7504         28.2504
  21167071.1984   -3528413.25049  -2720050.96947                  21167069.5344
        50.5004         37.5004
  21111607.3944    -337432.81649   -263383.83647                  21111606.1364
        50.7504         39.2504
 04  6 28 22 19 29.9990000  0  5G 1G11G16G20G25
  22004209.0344   -2994795.70749  -2310310.25847                  22004208.8624
        48.7504         34.0004
  22124975.8234    -443863.97349   -345329.26247                  22124975.4604
        48.5004         31.7504
  22748835.8864   -3931059.42249  -3036744.37147                  22748835.2764
        45.5004         28.5004
  21153737.0654   -3598483.25049  -2774650.96547                  21153735.4254
        50.7504         37.5004
  21110723.2844    -342076.41449   -267002.24247                  21110721.5464
        50.7504         39.0004
 04  6 28 22 19 44.9990000  0  5G 1G11G16G20G25
  21992996.1984   -3053718.96149  -2356224.46947                  21992996.3154
        48.7504         34.2504
  22123779.2144    -450150.49649   -350227.89147                  22123778.8194
        49.0004         32.5004
  22734086.1444   -4008569.82849  -3097142.05547                  22734085.6984
        45.5004         29.2504
  21140417.5734   -3668477.63749  -2829192.03947                  21140415.7804
        49.7504         37.7504
  21109854.6594    -346643.00049   -270560.64147                  21109853.1904
        51.0004         39.2504
 04  6 28 22 19 59.9990000  0  5G 1G11G16G20G25
  21981788.3864   -3112615.91049  -2402118.16447                  21981788.1754
        49.0004         34.0004
  22122598.7614    -456353.30149   -355061.25447                  22122598.6634
        48.5004         31.7504
  22719344.4334   -4086034.71949  -3157504.25047                  22719344.4444
        45.5004         28.0004
  21127111.5814   -3738400.90249  -2883677.68447                  21127110.2654
        50.5004         37.0004
  21108999.4254    -351137.71549   -274063.02047                  21108997.6904
        51.0004         38.2504
 04  6 28 22 20 14.9990000  0  5G 1G11G16G20G25
  21970585.9334   -3171483.32049  -2447988.85547                  21970586.1834
        48.7504         34.2504
  22121435.0654    -462469.30549   -359827.00447                  22121434.7104
        48.7504         31.0004
  22704612.8004   -4163450.44149  -3217828.14147                  22704612.6554
        45.0004         28.0004
  21113819.6204   -3808249.44149  -2938105.10247                  21113818.1634
        50.7504         36.5004
  21108158.3944    -355557.52049   -277507.03147                  21108156.3904
        51.0004         38.5004
 04  6 28 22 20 29.9990000  0  5G 1G11G16G20G25
  21959389.8004   -3230320.78549  -2493836.21947                  21959390.0654
        48.7504         34.0004
  22120288.0584    -468498.38349   -364524.99647                  22120286.9214
        48.5004         31.7504
  22689890.9404   -4240816.15649  -3278113.07847                  22689889.8084
        45.7504         28.0004
  21100542.1594   -3878022.51649  -2992473.71947                  21100540.9174
        50.2504         36.7504
  21107331.3474    -359902.23049   -280892.53147                  21107329.5654
        51.0004         38.7504
 04  6 28 22 20 44.9990000  0  5G 1G11G16G20G25
  21948198.9404   -3289130.44149  -2539661.91047                  21948199.0034
        48.7504         34.7504
  22119156.6444    -474443.09849   -369157.27047                  22119156.0934
        47.5004         32.5004
  22675178.0344   -4318133.63749  -3338360.43747                  22675177.4764
        46.0004         29.0004
  21087278.8474   -3947722.03549  -3046785.03547                  21087277.6874
        50.2504         37.7504
  21106518.5504    -364174.29349   -284221.43047                  21106517.0974
        51.0004         39.2504
 04  6 28 22 20 59.9990000  0  5G 1G11G16G20G25
  21937012.8154   -3347910.20749  -2585464.29747                  21937013.2304
        47.5004         34.0004
  22118041.5424    -480301.56649   -373722.32047                  22118041.4254
        47.5004         31.7504
  22660474.6364   -4395400.33649  -3398568.21947                  22660473.8824
        45.2504         29.7504
  21074030.0734   -4017345.37949  -3101036.97347                  21074028.7334
        50.5004         37.0004
  21105719.5504    -368371.86749   -287492.26648                  21105717.6834
        50.5004         39.5004
 04  6 28 22 21 14.9990000  0  5G 1G11G16G20G25
  21925833.6124   -3406658.91049  -2631242.48447                  21925833.7844
        49.0004         34.0004
  22116943.7924    -486072.91849   -378219.51247                  22116943.4334
        48.0004         32.2504
  22645780.6124   -4472614.58649  -3458735.12147                  22645781.0624
        45.5004         29.2504
  21060795.9954   -4086891.24649  -3155228.54347                  21060794.3234
        50.5004         37.0004
  21104935.2304    -372494.05949   -290704.37547                  21104933.7494
        50.7504         39.0004
 04  6 28 22 21 29.9990000  0  5G 1G11G16G20G25
  21914659.6284   -3465377.78949  -2676997.44147                  21914659.8584
        47.7504         34.5004
  22115861.7064    -491758.71549   -382650.03147                  22115861.2334
        49.0004         32.5004
  22631096.9724   -4549777.30549  -3518861.87147                  22631096.9804
        45.0004         29.5004
  21047576.2304   -4156360.52749  -3209360.43747                  21047574.8274
        50.2504         38.0004
  21104164.8704    -376542.22349   -293858.80547                  21104163.2144
        51.5004         39.2504
 04  6 28 22 21 44.9990000  0  5G 1G11G16G20G25
  21903491.8394   -3524065.93449  -2722728.43747                  21903491.6014
        48.5004         34.0004
  22114796.1904    -497358.30549   -387013.36347                  22114795.3474
        48.7504         31.7504
  22616423.2304   -4626887.08649  -3578947.35547                  22616423.6244
        44.7504         28.7504
  21034371.8394   -4225751.97349  -3263431.67247                  21034369.9834
        50.7504         37.5004
  21103408.6594    -380515.79749   -296955.09847                  21103407.1444
        51.0004         38.5004
 04  6 28 22 21 59.9990000  0  5G 1G11G16G20G25
  21892329.6124   -3582722.45349  -2768434.79347                  21892329.6834
        48.5004         33.7504
  22113746.9094    -502871.07049   -391309.04347                  22113746.2264
        48.2504         31.5004
  22601760.2224   -4703942.66049  -3638990.61747                  22601760.0264
        45.0004         28.5004
  21021182.0814   -4295064.35249  -3317441.31247                  21021180.4644
        50.7504         37.0004
  21102667.0114    -384414.03949   -299992.69947                  21102665.4174
        51.0004         38.5004
 04  6 28 22 22 14.9990000  0  5G 1G11G16G20G25
  21881173.5974   -3641348.96149  -2814117.76647                  21881173.7654
        49.0004         34.2504
  22112714.2064    -508298.91449   -395538.57047                  22112713.6674
        47.7504         32.2504
  22587107.5974   -4780945.21149  -3698992.57847                  22587106.6714
        46.0004         28.5004
  21008006.9644   -4364298.98449  -3371390.36347                  21008005.6444
        51.0004         37.5004
  21101939.0654    -388238.84049   -302973.07847                  21101937.7224
        51.2504         39.2504
 04  6 28 22 22 29.9990000  0  5G 1G11G16G20G25
  21870022.4174   -3699947.22749  -2859778.73047                  21870023.0074
        48.2504         33.5004
  22111697.3944    -513643.87949   -399703.50047                  22111696.3394
        49.0004         31.5004
  22572464.2374   -4857896.17249  -3758954.33647                  22572462.9724
        45.5004         28.5004
  20994846.5504   -4433457.24649  -3425279.91047                  20994845.2694
        50.5004         37.7504
  21101224.8004    -391992.27349   -305897.83247                  21101223.5224
        51.5004         38.5004
 04  6 28 22 22 44.9990000  0  5G 1G11G16G20G25
  21858877.7454   -3758514.59449  -2905415.60947                  21858877.7144
        48.7504         33.5004
  22110696.1444    -518903.69949   -403802.07447                  22110695.7224
        48.2504         31.0004
  22557831.3944   -4934792.44149  -3818873.46547                  22557830.8314
        45.5004         28.5004
  20981701.3944   -4502536.11749  -3479107.58247                  20981699.5734
        50.5004         36.5004
  21100524.4254    -395671.69949   -308764.93047                  21100523.1834
        50.7504         37.5004
 04  6 28 22 22 59.9990000  0  5G 1G11G16G20G25
  21847739.4484   -3817047.43749  -2951025.60947                  21847739.1514
        48.5004         33.7504
  22109712.2374    -524074.96149   -407831.65647                  22109711.5344
        47.7504         31.7504
  22543209.2694   -5011629.76649  -3878746.66847                  22543209.2764
        45.5004         29.5004
  20968571.8784   -4571531.67649  -3532870.35547                  20968570.4014
        50.5004         38.0004
  21099839.1364    -399273.95349   -311571.89547                  21099837.6794
        50.2504         39.0004
 04  6 28 22 23 14.9990000  0  5G 1G11G16G20G25
  21836607.1984   -3875549.01649  -2996611.25447                  21836606.7724
        49.5004         34.5004
  22108744.3944    -529161.18049   -411794.98047                  22108743.7534
        48.7504         32.5004
  22528598.3784   -5088411.10249  -3938576.24247                  22528598.2884
        45.5004         29.2504
  20955458.0264   -4640446.87949  -3586570.50447                  20955456.3824
        51.5004         39.0004
  21099167.8624    -402802.64549   -314321.53947                  21099166.1874
        50.7504         38.7504
 04  6 28 22 23 29.9990000  0  5G 1G11G16G20G25
  21825480.2454   -3934021.20749  -3042173.97747                  21825479.8234
        49.5004         33.5004
  22107792.4404    -534164.52749   -415693.70347                  22107791.4994
        48.5004         31.5004
  22513997.8784   -5165137.87949  -3998363.29747                  22513997.0584
        45.7504         29.7504
  20942358.5654   -4709283.22749  -3640209.20347                  20942356.9954
        51.0004         38.0004
  21098509.7224    -406259.53149   -317015.21947                  21098508.3864
        50.7504         38.0004
 04  6 28 22 23 44.9990000  0  5G 1G11G16G20G25
  21814359.3474   -3992460.60249  -3087711.14847                  21814359.2884
        49.2504         33.5004
  22106856.4954    -539082.00849   -419525.52347                  22106856.0074
        48.5004         31.5004
  22499407.9404   -5241806.31649  -4058104.89147                  22499407.4764
        46.0004         28.7504
  20929275.5894   -4778037.02049  -3693783.57047                  20929273.4564
        51.2504         37.7504
  21097866.0344    -409641.57849   -319650.59447                  21097864.5584
        51.0004         38.2504
 04  6 28 22 23 59.9990000  0  5G 1G11G16G20G25
  21803243.9094   -4050871.64849  -3133226.23847                  21803243.8554
        49.5004         34.5004
  22105936.0974    -543918.17649   -423293.98847                  22105935.1474
        48.5004         31.5004
  22484829.1054   -5318420.44549  -4117804.20347                  22484827.8434
        46.2504         29.0004
  20916206.8944   -4846712.31249  -3747296.78547                  20916205.2184
        51.7504         38.2504
  21097235.9954    -412953.54349   -322231.36347                  21097234.9954
        50.7504         38.2504
